Regional Weather Roundup
Issued by NWS Portland, ME

Current Version | Previous Version | Text Only | Print | Product List | Glossary Off
Versions: 1 2 3 4 5 6 7 8 9 10 11 12 13 14 15 16 17 18 19 20 21 22 23 24 25 26 27 28 29 30 31 32 33 34 35 36 37 38 39 40 41 42 43 44 45 46 47 48 49 50
000 ASUS41 KGYX 281510 RWRGYX WEATHER ROUNDUP FOR MAINE AND NEW HAMPSHIRE NATIONAL WEATHER SERVICE GRAY ME 1100 AM EDT WED JUN 28 2017 MEZ002-005-006-010-012-015-018-020-021-024-026-027-029-281600- MAINE CITY SKY/WX TMP DP RH WIND PRES REMARKS PORTLAND MOSUNNY 69 53 56 NW7 29.96S SANFORD MOSUNNY 68 52 56 W15G23 29.98S BAR HARBOR PTSUNNY 65 54 67 W6 29.93S WISCASSET PTSUNNY 68 55 63 MISG 29.97R ROCKLAND MOSUNNY 67 55 65 W9 29.94S FRYEBURG MOSUNNY 69 50 50 NW8 29.97S LEWISTONAUBURN CLOUDY 66 52 60 NW14G20 29.96S AUGUSTA PTSUNNY 65 50 58 W8 29.96R WATERVILLE MOSUNNY 67 52 58 VRB6 29.92S BANGOR PTSUNNY 66 51 58 NW10 29.92S GREENVILLE N/A 61 51 70 VRB7 29.91S MILLINOCKET PTSUNNY 62 54 74 N7 29.92S HOULTON PTSUNNY 64 56 75 NW8 29.88F PRESQUE ISLE LGT RAIN 62 55 77 S6 29.89F FRENCHVILLE CLOUDY 57 52 83 W5 29.87F CARIBOU PTSUNNY 63 55 75 VRB3 29.87F $$ NHZ002-005-008-009-011-012-014-281600- NEW HAMPSHIRE CITY SKY/WX TMP DP RH WIND PRES REMARKS PORTSMOUTH MOSUNNY 70 52 54 W14 29.97S ROCHESTER MOSUNNY 67 50 54 NW13G21 29.98S NASHUA MOSUNNY 69 50 50 NW13G21 30.02S MANCHESTER MOSUNNY 69 48 47 NW13 30.00S CONCORD MOSUNNY 68 52 56 NW12G21 30.01S LACONIA PTSUNNY N/A N/A N/A VRB6 30.01R PLYMOUTH PTSUNNY 65 53 63 W7 30.00F BERLIN MOSUNNY 64 49 57 VRB7G20 29.99R WHITEFIELD PTSUNNY 62 51 67 W7 30.00F JAFFREY MOSUNNY 66 51 58 NW10G20 30.04F KEENE MOSUNNY 67 50 54 W10 30.04F LEBANON PTSUNNY 69 47 45 NW14G21 30.01S MT WASHINGTON FOG 37 37 100 W31G46 N/A VSB 0 $$ VTZ005-007-008-281600- VERMONT CITY SKY/WX TMP DP RH WIND PRES REMARKS ST JOHNSBURY N/A 59 56 89 MISG 29.99S MONTPELIER PTSUNNY 61 52 72 NW9 30.05F BURLINGTON MOSUNNY 67 52 58 VRB7 30.01S $$ MAZ007-012-024-CTZ003-RIZ002-NYZ038-NYZ072-281600- SOUTHERN NEW ENGLAND AND NY CITY SKY/WX TMP DP RH WIND PRES REMARKS BOSTON MOSUNNY 70 52 52 W13 30.01F WORCESTER SUNNY 66 47 50 NW17G24 30.05F NANTUCKET SUNNY 70 57 63 SW15 30.05R PROVIDENCE MOSUNNY 72 52 49 NW16G22 30.04S HARTFORD MOSUNNY 72 49 44 W10 30.06F ALBANY MOSUNNY 69 50 50 VRB6 30.07F NEW YORK CITY MOSUNNY 72 51 47 NW9 30.11S $$ ANZ081-ANZ082-ANZ150-NHZ014-MEZ023>029-281600- COASTAL MARINE OBSERVATIONS STATION/POSITION TIME TEMP WIND PRES WAVE AIR SEA DIR/SP/G HT/PER (UTC) (F) (DEG/KT/KT) (MB) (FT/S) MATINICUS ROCK 1400 54 260/ 10/ 11 1013.7S ISLE OF SHOALS 1400 61 280/ 10/ 11 1015.2S JEFFREYS LEDGE 1436 57 N/A 2/ 4 CASHES LEDGE BUO 1350 62 61 1014.8 3/ 4 GEORGES BANK BUO 1350 56 55 1015.5 2/ 7 $$ .............KEY.............. WCI - WIND CHILL TC - TEMPERATURE IN CELSIUS VSB - VISIBILITY IN MILES HX - HEAT INDEX FAIR- INDICATES FEW OR NO CLOUDS BELOW 12,000 FT, WITH NO SIGNIFICANT WEATHER AND/OR OBSTRUCTIONS TO VISIBILITY.

USA.gov is the U.S. government's official web portal to all federal, state and local government web resources and services.